Rbgn^[z[y[W
メイン
   新天体発見情報
     Comet P/2008 T1 = 2016 N2 (Boattini)
投稿するにはまず登録を

スレッド表示 | 新しいものから 前のトピック | 次のトピック | 下へ
投稿者 スレッド
佐藤裕久
投稿日時: 2016-7-9 14:06
モデレータ
登録日: 2005-6-12
居住地: 日本
投稿: 2505
オンライン
Comet P/2008 T1 = 2016 N2 (Boattini)

R. Weryk (ハワイ大学, 天文学研究所)の通報によると、7月4.5日UT、Haleakalaにある1.8-m Pan-
STARRS1望遠鏡によって得た4枚のw-バンド露出から彗星らしい天体を発見した。
この天体は、スタックイメージで近傍の恒星より少し大きく(FWHMはおよそ1".4体1".2)に見える。尾に
ついては明確な形跡はなかった。
R. Werykは、もしかすると偶然にP/2008 T1 (IAUC 8988を参照)を検出したかもしれないと付け加えた。
7月5.48日UT、R. J. WainscoatとC. Wipperは、3.6-m Canada-France-Hawaii Telescopeで得た3枚の
60秒フォローアップCCD w-バンド露出から、0".7のシーイングでFWHM約0".9のコマと西へかすかに超低表面
輝度の尾らしいものが見えた。
小惑星センターのNEOCPとPCCP webpageに公表後、A. C. GilmoreとP. M. Kilmartin(Mt John天文台,
Lake Tekapo, ニュージーランド, 1.0-m f/7.7 反射望遠鏡)によって彗星状(7月5.6日、全光度19.3-
19.8等)と観測された。
Williamsは、P/2016 N2が、P/2008 T1と同一であることを確認した。

検出位置は次のとおり。

     2016 UT             R.A. (2000) Decl.       Mag.
     July  4.49550   20 38 10.32   -18 04 19.0   20.4
           4.50619   20 38 09.99   -18 04 19.7   20.4
           4.51690   20 38 09.66   -18 04 20.5   20.3
           4.52762   20 38 09.33   -18 04 21.1   20.6

MPEC 2013-C52のG. V. Williamsの予報に対し、Delta(T)は、+0.29 dayであった。
ICQ's 2015 Comet Handbookの中野主一氏の予報に対し、Delta(T)は、+0.22 dayであった。

連結軌道要素、位置推算表は次のとおり、

Orbital elements:
    P/2008 T1 (Boattini)
Epoch 2008 Feb. 24.0 TT = JDT 2454520.5
T 2008 Feb. 26.28614 TT                                 MPCW
q   3.0426609            (2000.0)            P               Q
n   0.11311997     Peri.   35.80049     +0.84402512     +0.53524051
a   4.2342502      Node   291.80552     -0.50012080     +0.76279638
e   0.2814168      Incl.    2.08333     -0.19365117     +0.36284884
P   8.71
From 226 observations 2006 May 25-2016 July 5, mean residual 0".7.

    P/2008 T1 (Boattini)
Epoch 2016 Nov. 28.0 TT = JDT 2457720.5
T 2016 Nov. 18.48449 TT                                 MPCW
q   3.0630400            (2000.0)            P               Q
n   0.11245563     Peri.   35.75982     +0.84330412     +0.53638008
a   4.2509101      Node   291.76896     -0.50113607     +0.76215491
e   0.2794390      Incl.    2.07857     -0.19416697     +0.36251386
P   8.76
From 226 observations 2006 May 25-2016 July 5, mean residual 0".7.

    P/2008 T1 (Boattini)
Epoch 2025 Sept. 2.0 TT = JDT 2460920.5
T 2025 Aug. 29.21285 TT                                 MPCW
q   3.0581120            (2000.0)            P               Q
n   0.11263646     Peri.   36.14059     +0.84522350     +0.53334741
a   4.2463592      Node   291.59402     -0.49843168     +0.76397571
e   0.2798273      Incl.    2.07897     -0.19277733     +0.36315514
P   8.75
From 226 observations 2006 May 25-2016 July 5, mean residual 0".7.

    P/2008 T1 (Boattini)
Epoch 2016 July 31.0 TT = JDT 2457600.5
T 2016 Nov. 18.52339 TT                                 MPCW
q   3.0630255            (2000.0)            P               Q
n   0.11248451     Peri.   35.76511     +0.84337493     +0.53626857
a   4.2501824      Node   291.77124     -0.50103570     +0.76221967
e   0.2793190      Incl.    2.07876     -0.19411840     +0.36254269
P   8.76
From 226 observations 2006 May 25-2016 July 5, mean residual 0".7.

Ephemeris:
    P/2008 T1 (Boattini)
Date    TT    R. A. (2000) Decl.     Delta      r     Elong.  Phase   m1
2016 06 05    20 44 42.6 -17 58 38   2.4786  3.1801   125.8    15.0  20.0
...
2016 06 20    20 43 29.8 -17 53 58   2.3109  3.1607   140.4    11.8  19.8
...
2016 06 28    20 41 01.6 -17 58 02   2.2385  3.1510   148.6     9.7  19.7
...
2016 07 04    20 38 24.9 -18 03 43   2.1934  3.1440   154.9     7.9  19.7
2016 07 05    20 37 55.3 -18 04 51   2.1867  3.1428   156.0     7.6  19.7
2016 07 06    20 37 24.8 -18 06 02   2.1802  3.1417   157.1     7.2  19.7
...
2016 07 12    20 34 04.8 -18 14 06   2.1467  3.1350   163.6     5.3  19.6
...
2016 07 20    20 29 02.3 -18 26 38   2.1165  3.1266   172.4     2.5  19.6
...
2016 08 04    20 18 53.0 -18 51 36   2.1064  3.1121   170.8     3.0  19.5

(CBET 4289、MPEC 2016-N27)
スレッド表示 | 新しいものから 前のトピック | 次のトピック | トップ

投稿するにはまず登録を
 
© 1999 Tsutomu Seki.